Wind_Speed
5 4 4 4 3 2 2 1 1 2 2 2 3 4 4 4 4 5 6 6 6 7 7 7 8 9 9 9 10 10 11 11 11 10 10 10 9 9 9 8 7 6 6 5 5 5 5 5 5 5 4 4 3 4 4 4 5 6 6 7 7 7 8 8 8 8 8 8 8 8 8 8 8 8
5 5 5 5 5 4 3 2 2 2 2 2 3 4 5 4 4 5 5 6 6 6 6 7 7 8 8 8 8 9 9 10 10 10 10 10 9 8 7 7 7 6 5 4 4 3 2 2 2 2 2 2 2 2 2 3 3 4 4 5 6 7 7 8 8 8 8 9 8 8 8 8 8 8
6 7 7 7 6 5 4 3 2 2 2 3 4 4 5 5 4 4 5 6 6 6 6 7 7 8 8 7 7 7 8 8 9 9 10 10 10 9 8 7 6 5 5 5 4 3 3 2 1 2 2 3 3 3 4 4 4 5 5 5 5 6 7 7 7 8 8 8 9 9 9 9 9 9
8 8 8 8 7 6 5 4 3 3 4 4 4 5 5 5 5 5 5 6 6 6 7 7 8 8 8 8 8 7 7 8 8 8 9 9 10 10 9 9 8 7 6 5 4 4 4 4 4 4 5 5 5 6 6 6 6 7 7 7 7 7 8 8 8 9 9 10 10 10 10 10 10 11
9 9 8 8 8 7 6 5 5 5 5 5 5 6 6 6 7 7 6 6 6 6 7 7 7 8 9 8 8 8 8 9 9 9 8 8 9 9 9 10 9 9 9 7 6 5 5 5 5 6 7 7 8 8 8 9 9 9 9 9 9 10 10 10 11 11 12 12 12 13 13 13 13 13
9 8 8 7 7 7 7 7 8 8 8 7 7 8 8 8 8 8 7 7 6 6 7 8 7 7 8 8 9 9 9 10 10 10 10 10 9 9 9 10 9 9 10 9 9 8 7 7 7 7 7 8 9 9 10 11 11 12 12 12 13 13 13 13 14 14 15 15 15 15 16 16 16 16
10 9 8 7 7 8 8 8 9 10 9 9 10 9 9 9 9 9 8 8 8 8 8 8 8 8 8 8 9 10 11 11 11 12 12 12 12 11 11 11 10 10 10 10 10 10 10 10 9 9 9 9 10 10 10 11 12 13 13 14 15 15 16 16 17 17 18 18 18 18 18 18 19 19
11 10 9 8 8 9 8 8 10 10 9 10 11 11 10 10 10 10 10 10 11 10 10 9 9 9 10 10 10 11 11 12 13 13 13 13 14 14 14 13 12 11 11 11 11 11 11 12 12 12 12 12 12 12 12 12 13 13 14 15 15 16 17 18 19 19 20 20 21 21 21 21 21 21
10 11 11 10 11 11 10 10 11 11 11 11 12 12 12 12 12 11 12 12 13 13 12 12 12 12 12 12 12 12 13 13 13 14 14 15 15 15 15 15 14 13 13 13 13 13 13 13 14 14 14 14 14 14 14 15 15 15 15 16 16 17 18 18 19 20 21 21 22 22 23 23 23 23
11 12 13 12 13 14 14 13 13 12 13 13 13 13 13 13 14 13 14 14 15 15 15 16 15 14 15 15 14 14 14 15 15 15 15 16 16 17 17 17 16 15 15 15 15 15 15 15 15 15 15 15 16 16 16 17 17 17 18 18 18 18 19 19 20 21 21 22 22 23 23 24 24 24
14 15 14 14 15 16 16 15 15 15 15 14 15 16 16 15 16 16 16 17 17 17 18 19 18 17 17 17 17 16 16 17 17 17 17 16 17 18 18 19 19 18 17 17 17 17 17 17 17 17 17 17 17 17 18 18 19 19 19 20 20 20 20 20 21 22 22 23 23 23 24 24 25 25
17 16 16 17 18 18 17 18 18 18 17 17 17 18 18 18 19 19 19 19 19 19 20 20 19 19 19 19 19 18 18 19 19 19 19 19 19 19 20 20 20 20 20 20 20 19 19 20 19 19 19 19 19 19 19 20 21 21 21 21 22 22 22 22 22 23 23 24 24 24 25 25 25 26
18 18 19 20 20 20 20 20 20 20 20 20 20 20 20 21 21 21 21 21 21 21 21 21 21 21 21 21 20 21 20 21 21 21 21 21 21 22 21 21 21 21 22 22 22 22 22 22 22 21 21 21 21 21 21 22 23 23 23 24 24 24 24 24 24 24 24 25 26 26 27 27 27 27
19 19 21 22 22 22 22 22 22 22 23 23 23 23 23 23 24 23 23 23 23 23 23 23 23 23 23 23 23 23 23 23 23 23 22 22 23 23 23 22 21 22 23 23 22 23 23 23 24 23 23 23 23 23 24 25 25 25 25 26 26 26 27 27 27 26 26 27 27 28 28 29 29 30
21 21 22 24 24 23 23 24 25 25 25 26 26 26 25 25 26 26 26 26 25 25 25 25 26 26 25 25 25 25 25 25 24 25 24 24 24 24 24 24 23 23 24 24 24 24 24 24 25 25 25 25 25 25 25 25 26 26 26 27 27 27 27 28 28 28 28 29 30 30 30 30 30 30
25 24 24 25 25 25 25 26 26 26 27 28 29 29 28 28 28 28 29 29 28 28 27 27 28 28 29 29 28 27 27 26 26 26 26 27 26 25 25 25 25 25 25 25 25 26 26 25 26 25 26 26 27 26 26 27 28 28 28 28 29 29 28 28 28 29 30 32 32 32 32 32 31 32
27 26 26 26 26 27 26 27 27 28 28 29 30 30 31 31 31 31 31 31 31 31 30 30 30 30 31 32 31 30 29 29 28 28 28 28 27 26 25 24 25 26 26 26 27 28 28 27 27 26 26 27 28 27 27 29 30 30 30 31 30 30 30 29 29 30 32 33 34 33 34 34 33 34
29 28 28 28 29 28 27 28 28 28 28 30 30 31 32 32 33 34 34 34 34 34 34 34 33 32 33 33 32 32 32 32 32 31 30 30 28 27 26 25 26 26 26 27 28 28 29 30 29 30 29 30 30 30 30 32 32 32 33 33 32 32 31 31 31 32 33 34 35 35 35 36 36 37
31 31 30 30 30 29 29 29 29 29 29 29 31 32 32 32 33 35 35 35 36 36 37 37 37 36 36 36 35 35 34 34 34 33 32 31 30 29 28 28 28 28 28 28 29 30 32 33 32 33 33 32 33 34 34 35 35 36 36 36 35 34 33 32 33 34 35 36 37 37 38 38 39 39
32 32 30 30 30 30 30 30 29 29 30 30 31 32 32 33 34 34 34 34 35 35 34 36 37 37 36 36 36 36 37 36 36 35 34 33 32 31 32 33 33 33 33 34 34 34 36 37 37 37 37 36 36 37 38 37 38 38 38 38 37 36 35 35 35 35 36 37 38 39 39 40 40 40
33 33 31 31 31 31 30 30 29 30 32 32 33 32 33 35 36 36 36 37 38 37 36 37 37 37 36 36 35 36 37 37 37 36 35 35 35 34 35 37 39 39 38 38 39 39 40 42 43 42 41 40 39 40 41 41 40 40 40 40 40 39 39 40 39 39 39 39 39 39 40 41 41 41
34 33 32 32 32 31 31 31 31 32 33 35 35 34 33 34 35 36 39 41 41 41 42 42 41 39 38 37 36 36 37 38 38 38 38 38 38 38 38 39 42 43 41 39 39 40 40 42 43 44 44 43 42 41 42 43 42 42 42 42 43 43 43 43 43 43 42 42 42 42 42 42 43 42
36 35 34 33 34 34 34 34 34 34 35 37 35 31 29 30 32 35 38 39 39 40 41 42 44 43 41 40 40 39 39 40 40 40 40 40 40 40 41 41 42 43 41 38 37 38 38 39 41 43 43 44 44 42 42 42 44 44 44 44 45 47 47 47 47 46 46 45 45 45 45 45 45 44
38 37 37 36 36 36 36 37 36 36 36 37 36 34 33 34 35 35 37 37 38 39 41 42 44 45 44 43 42 42 42 42 41 41 40 40 40 41 40 39 39 39 38 36 35 35 36 36 37 39 40 41 42 43 42 42 44 45 45 45 45 46 47 48 48 48 47 47 46 47 48 48 48 47
40 39 38 38 37 37 36 37 37 36 37 38 39 38 38 36 35 35 36 38 39 41 43 43 43 44 44 43 42 42 41 40 39 39 39 40 40 38 36 34 34 34 34 34 34 34 34 35 35 36 37 38 40 41 42 42 43 43 44 44 44 44 45 46 48 48 48 47 47 48 49 50 51 51
39 38 37 37 37 35 33 33 34 33 33 34 34 33 32 30 29 29 29 30 31 32 34 35 36 37 38 38 38 38 37 36 36 36 37 36 35 33 32 31 31 31 32 33 33 33 34 34 34 34 35 36 38 40 41 42 42 42 42 42 42 41 41 42 43 45 46 46 46 46 47 48 48 49
37 36 35 35 33 32 32 34 35 32 28 25 24 25 25 24 24 23 24 24 24 24 25 25 25 26 27 27 28 28 29 30 31 31 31 31 31 31 31 31 32 33 34 34 35 36 36 36 36 36 36 36 37 39 40 40 41 42 42 42 41 41 41 41 41 42 43 43 43 43 43 44 45 46
34 33 33 32 29 28 31 34 34 30 26 22 22 22 22 21 21 22 23 24 24 25 25 25 24 24 23 23 22 23 25 26 27 28 28 29 30 31 32 33 33 34 35 35 36 37 37 38 38 38 38 38 38 38 38 39 40 42 43 44 44 44 45 44 44 44 45 45 46 46 47 47 48 49
31 31 30 29 28 28 31 34 34 32 30 30 30 29 27 25 25 24 25 25 25 26 26 26 26 26 26 25 24 24 25 26 27 28 29 30 30 31 32 32 33 34 34 35 36 36 37 37 38 38 38 39 39 39 39 40 41 42 43 45 46 47 48 47 47 48 49 49 48 48 48 48 48 49
27 25 23 22 23 25 27 30 32 33 33 32 31 29 27 26 25 25 24 24 24 24 25 25 25 25 26 26 26 26 26 27 27 28 28 29 29 30 31 31 32 33 34 34 35 36 37 37 38 38 39 39 40 41 41 42 42 42 43 45 46 47 49 50 50 51 52 52 51 50 49 48 47 47
21 20 19 18 19 20 21 24 25 26 26 26 25 23 22 21 21 21 21 21 20 21 22 22 23 24 24 25 26 26 27 27 28 28 29 29 29 30 31 32 32 33 33 34 35 36 37 38 38 39 40 40 41 42 42 43 44 44 44 45 45 46 47 48 49 50 51 52 53 52 52 51 50 50
19 19 19 18 17 17 18 19 20 20 20 19 19 18 18 18 18 18 18 18 19 19 20 21 22 23 24 25 26 27 28 29 30 30 31 32 32 33 33 34 35 35 35 36 37 38 39 39 40 41 41 42 42 43 44 44 45 46 46 47 47 48 48 49 49 50 50 51 52 53 53 54 54 54
20 19 17 16 16 16 16 17 17 18 18 18 18 18 18 19 19 19 19 20 20 21 21 23 23 24 25 27 28 29 30 31 32 33 34 35 35 36 37 38 39 39 40 40 41 41 42 42 43 44 44 45 45 46 46 47 48 48 49 49 50 50 51 51 52 52 52 53 53 54 54 55 56 56
17 17 17 17 17 17 17 17 17 18 19 19 20 20 20 20 21 21 21 22 22 23 23 24 25 26 27 28 30 31 32 33 34 35 36 37 38 40 41 42 43 43 44 45 45 46 46 47 47 47 48 48 48 49 49 50 51 51 51 52 52 53 53 54 54 55 55 55 56 57 57 58 58 58
16 17 18 18 18 18 18 19 19 20 20 21 21 21 22 22 22 22 23 24 24 25 26 27 28 29 30 31 32 33 34 35 36 37 39 40 41 42 43 44 45 46 47 48 49 49 50 50 51 51 52 52 52 52 52 53 54 55 55 55 55 55 56 56 56 57 57 57 58 59 60 60 60 60
16 17 18 18 19 19 19 20 20 21 21 22 22 22 23 23 24 25 25 26 27 28 29 30 31 32 32 33 34 35 37 38 39 40 41 42 43 44 45 46 47 48 49 50 51 52 52 53 54 55 56 56 57 57 56 55 56 58 59 59 59 59 59 60 60 60 60 60 61 61 62 63 63 62
17 18 18 18 18 19 19 20 20 21 22 22 23 24 24 25 26 27 28 29 29 30 31 32 33 34 35 36 37 38 39 41 42 43 44 45 46 47 48 49 50 51 51 52 53 54 55 55 56 57 58 59 60 61 61 60 59 61 62 63 63 63 64 64 64 64 64 64 64 64 65 66 66 65
17 17 17 18 18 19 19 20 21 22 23 23 24 25 26 27 28 29 30 31 32 33 34 35 37 37 38 40 41 42 43 44 45 46 47 48 49 50 51 52 53 53 54 55 56 56 57 58 59 60 61 62 62 63 64 64 63 63 65 66 66 66 67 68 68 68 68 68 68 69 69 69 69 68
17 17 18 18 19 20 20 21 22 23 24 25 26 27 28 30 31 32 33 35 36 37 38 39 40 41 42 43 44 45 46 47 48 49 50 51 52 53 54 55 56 56 57 58 59 59 60 61 62 62 63 64 65 65 66 67 67 66 66 67 68 68 69 69 69 70 70 70 70 71 71 71 71 71
17 17 18 19 19 20 21 22 24 25 26 28 29 31 33 34 35 36 38 39 40 40 41 42 43 44 45 46 47 48 49 50 52 52 53 54 55 56 56 57 58 59 59 60 61 61 62 62 63 63 64 64 65 66 66 67 68 67 67 66 67 67 68 69 69 69 69 69 70 70 70 70 70 70
17 18 19 20 21 23 24 26 28 29 31 33 34 36 37 38 39 40 41 41 42 43 44 45 46 47 49 49 50 51 52 53 54 55 55 56 56 57 57 58 59 59 60 60 61 61 61 62 62 62 63 63 63 64 64 65 65 66 66 65 64 64 64 65 66 66 66 66 66 67 67 67 67 67
19 21 23 24 26 28 30 31 33 34 35 36 37 38 39 40 41 42 43 44 45 46 47 48 49 50 51 52 53 54 54 55 56 57 57 58 58 59 59 59 60 60 60 60 60 60 61 61 61 61 61 61 61 61 62 62 62 63 63 62 62 62 61 61 61 61 61 62 62 62 62 62 62 62
24 26 27 29 31 32 33 34 34 35 36 37 38 39 40 41 43 44 45 46 47 48 49 50 52 53 53 54 55 56 57 57 58 58 59 60 60 60 60 60 60 60 59 59 59 59 59 59 59 58 58 58 58 58 59 59 59 59 59 59 59 59 58 58 57 56 56 55 55 56 56 56 56 56
29 30 31 32 33 34 34 35 36 37 38 39 40 41 42 44 45 46 47 48 48 49 51 51 52 53 53 54 55 55 56 57 57 57 58 58 57 57 57 57 56 56 55 55 55 55 54 54 54 54 54 54 54 54 55 55 55 55 55 55 55 55 55 55 54 53 52 51 50 50 51 51 51 51
32 32 33 33 34 34 35 36 37 38 40 41 42 43 43 44 45 46 47 47 48 49 49 50 51 51 52 53 53 54 54 54 54 54 54 54 53 53 52 51 51 50 50 49 49 49 49 49 48 49 49 49 49 50 50 50 51 51 50 50 50 50 49 49 49 49 49 48 47 46 46 47 46 46
Wind_Direction
210 213 221 232 236 238 246 257 266 269 280 293 300 304 309 320 330 338 341 339 338 341 343 344 343 346 351 353 355 357 1 5 6 8 12 14 18 24 26 27 32 43 55 65 74 82 87 90 93 98 104 112 125 139 152 163 174 181 186 192 197 202 207 211 215 219 223 224 225 225 225 226 227 229
224 230 236 243 247 250 256 264 269 271 267 266 274 284 290 300 312 317 320 320 322 326 328 329 329 331 335 339 342 346 348 351 353 353 354 355 359 6 12 17 20 22 27 33 42 55 76 95 112 126 138 147 157 168 181 192 204 214 219 221 222 225 225 225 226 226 227 227 226 227 229 233 236 238
237 240 244 247 253 259 266 270 265 256 254 253 254 263 273 282 289 295 301 304 307 312 315 317 319 320 323 327 328 330 334 337 338 338 338 338 341 345 349 355 0 6 9 9 6 1 351 333 288 260 247 231 222 219 219 221 222 224 231 237 241 245 245 243 241 238 236 235 235 237 239 243 246 249
244 246 249 253 260 266 267 259 241 234 244 251 251 253 259 265 270 275 282 288 294 300 302 302 306 310 314 318 318 318 322 323 323 322 320 322 326 329 332 335 339 342 345 348 346 341 332 321 308 294 283 272 263 255 249 246 243 240 239 240 243 246 249 251 252 253 253 252 252 252 252 253 254 256
252 255 259 265 269 271 270 265 258 258 261 264 266 263 260 260 263 267 268 271 278 286 290 290 293 297 302 306 308 309 311 312 312 310 307 308 310 313 316 321 324 326 328 329 328 325 318 310 304 298 292 287 282 276 270 266 262 259 257 253 252 252 252 252 254 256 257 259 261 262 262 262 262 261
257 262 264 268 274 282 291 294 294 295 297 297 291 279 270 267 268 270 269 267 267 271 280 286 288 289 293 299 302 304 305 305 305 305 304 304 303 303 305 307 308 310 313 315 316 314 311 305 297 291 288 285 283 282 279 276 273 270 266 263 261 258 257 256 257 257 257 258 259 261 262 263 264 264
264 265 269 277 283 287 292 295 295 295 298 299 293 284 280 281 281 279 276 274 272 269 272 281 286 288 289 293 297 299 300 302 301 301 302 303 304 303 302 299 298 297 296 298 300 302 302 300 297 294 290 286 281 279 277 276 275 273 271 269 266 264 261 259 258 258 258 258 258 259 260 261 262 263
271 278 286 287 280 277 279 280 281 280 280 284 285 282 283 284 282 280 277 278 277 274 271 272 275 280 283 285 287 288 291 293 295 296 297 298 299 299 298 297 297 294 290 287 285 286 287 288 289 290 290 289 287 283 280 277 275 273 272 271 270 269 267 265 263 261 260 260 259 259 259 259 260 261
277 282 281 276 271 271 269 264 266 269 271 276 281 281 282 282 281 279 277 276 276 276 277 274 270 274 279 279 279 279 281 283 285 288 291 293 294 294 293 294 294 291 289 288 284 280 279 279 279 280 281 283 284 285 285 283 282 281 279 278 276 275 273 272 270 268 266 265 264 263 263 262 261 261
273 266 264 267 270 269 266 263 263 266 269 273 278 279 279 279 280 279 277 276 275 276 280 280 277 280 285 286 284 282 280 279 279 279 282 285 289 290 290 291 289 287 286 285 284 283 281 279 278 277 277 276 277 278 280 281 282 283 283 284 284 282 281 279 276 274 272 270 269 268 267 267 266 266
266 264 265 269 268 267 269 271 269 268 268 271 274 274 272 273 275 275 276 278 278 278 279 280 282 284 288 290 290 287 283 282 282 280 278 279 280 282 284 285 284 284 282 280 280 281 282 281 280 279 278 277 277 277 278 278 279 279 279 281 281 282 282 281 280 278 276 274 272 270 269 268 267 266
264 269 271 269 268 269 272 273 272 270 269 271 273 272 271 272 274 275 277 280 280 280 281 282 284 285 285 286 287 286 283 283 283 282 280 279 278 278 278 278 280 282 282 280 279 279 279 279 280 279 279 279 279 280 281 281 281 280 279 278 277 277 277 277 277 277 277 276 274 273 272 271 270 268
262 265 266 266 269 272 273 273 273 273 273 273 274 273 274 275 275 276 278 279 280 281 282 283 284 284 284 283 283 283 282 282 283 283 281 279 278 278 277 277 278 279 278 278 278 276 275 276 276 277 278 279 279 279 280 281 282 283 282 281 279 278 276 275 274 274 274 274 274 274 275 275 276 275
261 261 263 266 268 269 269 270 272 273 274 275 274 274 274 275 276 277 277 277 278 280 281 282 282 281 282 282 281 280 281 282 283 283 282 279 278 279 279 278 277 275 274 277 277 275 274 274 273 274 275 276 277 278 278 280 281 282 282 282 281 280 278 276 274 274 274 273 272 272 272 272 273 273
262 261 262 265 269 270 268 268 270 271 272 274 275 274 274 275 276 276 276 277 278 278 279 279 278 278 278 279 280 280 280 281 281 281 281 280 278 278 279 278 276 272 271 274 276 277 276 275 274 274 274 275 275 276 278 279 279 279 280 282 282 281 280 277 275 275 274 273 270 269 268 269 269 269
262 262 263 266 271 271 268 267 269 270 271 273 275 276 277 277 276 276 275 275 276 277 277 277 276 276 276 276 277 277 278 279 279 279 281 281 280 279 278 278 277 275 272 270 272 274 275 275 275 276 277 279 278 277 277 277 276 277 280 281 280 280 279 278 275 272 271 270 270 270 270 270 270 269
260 262 263 265 267 267 266 267 268 269 271 273 275 277 278 278 278 278 277 277 278 278 278 276 275 275 276 276 275 275 276 278 279 280 280 282 282 280 277 276 276 276 275 273 271 272 273 274 274 275 276 278 278 279 280 277 275 278 281 280 279 277 276 276 275 272 270 270 270 271 271 271 271 271
258 259 261 263 265 267 268 269 269 270 272 274 276 276 277 278 279 278 278 279 279 279 278 277 276 275 274 274 274 274 275 277 280 281 281 281 282 281 279 278 277 277 277 276 275 276 277 278 276 274 274 275 276 276 276 276 275 276 277 278 278 276 274 273 272 271 271 271 271 271 271 270 270 270
258 258 260 264 267 270 272 273 276 277 277 278 278 277 277 278 278 278 279 280 279 278 278 277 274 274 274 273 272 272 273 274 277 279 280 281 280 279 279 278 278 278 279 279 278 279 280 281 279 276 274 274 275 274 273 274 276 276 275 275 275 274 274 273 272 271 270 270 270 271 271 270 270 269
259 259 262 265 269 271 272 275 278 279 279 278 278 278 278 278 277 277 276 275 273 274 275 274 272 272 273 274 273 272 272 274 275 276 278 279 279 277 276 276 276 278 279 279 277 276 277 278 278 277 275 272 272 273 273 272 273 274 274 274 273 273 274 275 274 273 273 272 271 270 270 269 268 267
260 261 264 267 269 270 271 273 276 277 277 275 274 275 276 276 275 273 270 268 268 267 266 269 272 272 270 272 274 272 271 272 273 273 274 275 275 275 276 276 277 278 279 278 275 273 273 274 275 276 276 275 273 272 272 270 270 272 273 274 274 275 275 275 275 275 274 274 273 272 271 270 269 268
262 263 266 267 268 269 270 272 275 277 277 276 276 277 275 271 269 268 266 265 266 265 264 266 270 271 271 272 274 273 272 271 271 271 271 272 274 276 277 279 280 281 281 280 276 273 272 273 273 274 276 277 277 275 272 270 270 271 272 274 275 276 276 276 275 275 275 274 274 274 273 272 271 270
263 265 267 268 270 270 272 273 275 276 276 277 277 275 268 263 262 262 264 265 265 266 267 268 268 270 272 272 272 272 273 272 270 270 272 274 277 279 280 280 281 281 282 280 276 274 275 274 272 271 272 275 277 277 276 273 271 271 272 274 275 276 276 276 275 275 274 274 274 274 274 273 272 272
263 265 266 267 268 270 273 274 274 274 274 275 275 270 266 268 270 269 269 271 270 270 269 268 268 268 269 270 270 271 272 272 270 271 274 277 280 281 280 280 279 279 280 278 277 277 279 278 275 272 271 272 274 276 277 276 274 273 274 275 275 276 276 276 275 274 273 273 274 275 275 274 272 272
264 264 263 263 267 272 275 276 274 272 272 273 273 271 270 273 275 275 273 272 271 270 269 268 268 268 268 268 268 268 270 269 267 268 272 274 275 275 275 275 276 276 276 277 279 280 281 281 279 277 275 274 274 275 276 276 275 275 276 277 278 278 277 275 273 273 272 272 273 274 274 273 272 271
263 263 262 263 268 271 272 271 271 267 263 263 263 263 265 269 271 271 271 269 269 270 269 268 267 266 266 265 264 264 264 263 262 262 264 265 266 267 269 272 274 276 276 278 280 281 282 281 281 279 278 276 275 275 275 276 276 276 277 277 277 277 276 275 273 273 273 273 273 272 272 272 271 271
261 262 262 264 267 268 265 264 263 257 249 249 254 255 259 264 268 269 271 272 272 273 272 271 269 265 262 260 258 257 257 256 257 258 260 262 265 268 272 274 276 278 280 280 281 282 283 283 283 282 281 280 278 277 276 276 276 276 277 279 279 277 275 275 274 274 273 272 273 273 273 273 273 273
259 261 262 262 262 261 257 254 253 251 249 257 267 270 270 272 275 277 277 278 278 278 279 279 278 275 272 270 267 265 264 264 266 267 269 271 273 275 277 279 280 281 282 283 283 283 283 283 283 283 283 283 282 282 280 278 276 274 275 277 278 277 275 273 273 272 272 271 270 270 271 273 273 274
257 257 259 258 255 252 250 248 249 254 262 271 279 283 284 284 284 284 283 283 283 282 282 283 283 284 284 283 282 281 280 280 280 281 281 282 282 282 283 283 283 283 283 283 283 282 282 282 282 281 282 282 282 282 282 280 278 276 274 274 274 274 273 272 271 270 270 270 270 271 271 272 273 273
248 249 251 254 254 254 255 256 260 267 275 283 290 292 292 290 288 287 286 287 287 287 286 286 286 287 287 287 286 286 285 285 286 286 286 286 286 285 285 284 284 284 284 283 283 282 282 282 282 282 282 282 282 282 282 281 280 279 277 275 274 273 273 273 273 272 272 273 274 274 274 274 274 274
246 254 262 268 270 272 273 273 275 279 285 291 296 299 298 295 292 289 287 286 287 287 288 288 287 287 287 287 287 287 287 288 288 288 288 288 287 286 285 285 284 284 283 284 283 283 283 283 282 282 282 282 282 282 282 281 281 281 280 279 278 277 276 276 275 275 275 275 275 275 275 275 275 274
259 269 278 282 280 278 277 277 279 284 288 292 296 298 297 295 292 289 286 284 284 283 283 283 284 284 284 285 285 286 287 288 289 290 290 290 289 289 288 287 287 286 285 284 284 284 283 283 283 283 282 282 281 281 281 281 281 280 280 279 279 279 278 278 278 277 277 276 276 276 275 275 275 275
263 273 280 280 277 276 276 279 282 286 289 291 292 292 291 291 290 289 287 285 284 283 283 283 284 284 285 285 286 286 287 288 289 289 290 290 289 289 289 289 289 288 288 287 287 286 286 285 285 284 284 283 282 281 281 280 280 279 279 279 279 278 278 278 278 278 278 277 277 277 277 276 276 276
266 272 275 275 276 277 279 282 285 287 287 288 288 289 289 289 289 288 288 287 286 285 284 284 284 283 284 284 284 285 285 286 287 287 287 287 287 288 288 288 288 289 288 288 288 288 287 287 286 286 285 284 284 284 283 283 282 281 280 280 279 279 279 278 278 278 278 278 278 277 277 277 277 277
266 269 270 272 274 276 279 281 283 284 286 286 287 288 288 288 288 288 287 287 286 285 284 283 283 283 283 283 284 284 284 285 285 285 285 286 286 286 286 286 287 287 287 287 287 287 287 287 286 286 285 285 284 283 284 284 284 283 282 282 281 280 280 279 279 278 278 278 278 278 277 277 277 277
268 269 271 273 275 277 279 281 282 283 283 284 285 285 286 286 286 286 286 285 285 285 285 285 285 285 285 285 285 285 285 286 286 286 286 286 286 286 286 286 286 286 285 286 286 286 286 286 286 286 286 285 285 284 283 282 283 283 283 282 282 281 281 280 280 280 279 279 278 278 278 277 277 277
270 272 274 276 278 279 280 280 281 282 283 283 284 284 285 285 285 286 286 287 287 287 288 288 288 289 289 289 289 289 289 289 289 289 289 288 288 288 287 287 287 287 287 287 287 286 286 286 286 286 285 285 285 284 283 282 282 282 282 282 282 282 282 281 281 281 280 280 280 279 279 279 278 278
273 275 277 278 280 281 282 282 283 283 284 285 286 287 287 288 289 290 290 291 292 292 293 293 294 294 294 293 293 293 292 292 291 291 290 290 290 289 289 289 288 288 288 288 287 287 287 286 286 286 285 285 285 284 284 283 283 283 283 283 283 282 282 282 282 282 282 281 281 281 280 280 280 279
278 279 280 281 283 283 284 285 286 288 290 291 291 292 293 294 295 295 296 296 296 296 296 296 296 295 295 294 294 293 293 293 292 292 291 291 291 290 290 290 290 289 289 288 288 288 287 287 286 286 286 286 285 285 285 284 284 283 284 284 284 284 283 283 283 283 283 282 282 282 282 281 281 280
281 282 283 285 286 288 289 291 293 294 295 296 296 297 297 297 297 297 297 297 297 297 297 297 296 296 296 296 295 295 295 294 294 294 294 293 293 293 292 292 291 291 290 290 289 289 288 288 287 287 286 286 286 285 285 285 284 284 283 284 284 285 284 284 283 283 283 283 283 283 283 283 282 282
286 288 290 292 294 295 296 297 297 298 298 298 298 297 297 297 298 298 298 298 298 298 298 298 298 298 298 298 298 298 297 297 297 297 296 296 295 295 294 294 293 293 292 292 291 291 290 289 289 288 288 288 287 287 286 286 286 286 285 284 284 285 285 285 285 284 284 284 284 284 283 283 283 283
293 295 296 297 298 299 299 298 298 298 298 298 297 298 298 298 299 299 300 300 300 300 300 300 300 301 301 301 301 301 300 300 299 299 298 298 297 296 296 295 295 294 294 293 293 292 292 291 291 290 290 290 289 289 289 289 288 288 288 287 286 286 286 286 286 286 286 285 285 285 284 284 284 283
297 298 298 299 299 299 299 299 299 299 298 299 299 300 300 300 301 301 302 302 302 302 302 302 302 302 302 302 301 301 300 300 299 298 297 297 296 295 295 294 294 293 293 293 292 292 292 292 292 291 291 291 291 290 290 290 290 290 290 289 289 288 287 287 287 287 287 287 286 286 285 285 285 284
299 299 300 300 300 300 300 300 300 300 301 301 301 301 302 302 302 302 302 302 302 302 302 302 302 301 301 300 300 299 298 298 297 296 296 295 295 295 294 294 294 294 294 293 293 292 292 292 291 291 291 291 291 291 291 291 291 291 291 290 290 289 289 288 288 287 286 286 286 286 286 285 285 285
300 301 301 301 301 300 300 300 301 301 301 301 302 302 302 302 302 303 303 302 302 302 302 302 302 302 301 301 301 300 300 299 299 298 298 298 298 298 297 297 297 296 295 295 294 294 294 293 293 293 293 293 293 293 293 293 292 292 292 292 292 291 291 290 290 289 288 287 286 286 286 286 286 286
Height
5919 5919 5919 5919 5919 5919 5920 5920 5920 5920 5919 5919 5919 5919 5919 5919 5918 5918 5917 5917 5916 5915 5914 5913 5913 5912 5911 5910 5910 5909 5909 5908 5908 5908 5907 5906 5906 5905 5904 5904 5903 5903 5902 5902 5902 5902 5902 5902 5902 5903 5903 5903 5903 5903 5903 5903 5903 5903 5903 5903 5903 5903 5903 5903 5903 5903 5903 5903 5903 5903 5903 5903 5903 5903
5918 5918 5918 5918 5918 5919 5919 5919 5919 5919 5919 5919 5918 5918 5918 5918 5918 5918 5917 5917 5916 5915 5914 5914 5913 5912 5912 5911 5910 5910 5909 5909 5908 5908 5907 5907 5907 5906 5905 5905 5904 5904 5903 5903 5902 5902 5902 5902 5903 5903 5903 5903 5903 5903 5903 5904 5904 5904 5904 5903 5903 5903 5903 5903 5903 5903 5903 5903 5903 5903 5903 5903 5903 5903
5918 5918 5918 5918 5918 5918 5918 5919 5919 5919 5919 5918 5918 5918 5917 5917 5917 5917 5916 5916 5915 5915 5914 5914 5913 5913 5912 5911 5911 5910 5909 5909 5908 5908 5907 5907 5906 5906 5906 5905 5905 5905 5904 5903 5903 5902 5902 5902 5902 5903 5903 5903 5903 5903 5903 5903 5903 5903 5903 5903 5903 5903 5903 5903 5903 5903 5903 5903 5903 5903 5903 5903 5903 5903
5917 5917 5917 5917 5917 5917 5918 5918 5918 5918 5918 5918 5917 5917 5916 5916 5916 5915 5915 5915 5914 5914 5914 5913 5913 5912 5912 5911 5911 5910 5910 5909 5909 5908 5908 5907 5906 5906 5905 5905 5905 5905 5905 5904 5903 5903 5903 5902 5902 5902 5902 5902 5902 5902 5902 5902 5902 5902 5902 5902 5902 5902 5902 5902 5902 5902 5902 5902 5902 5902 5902 5902 5902 5902
5916 5916 5916 5917 5917 5917 5917 5917 5917 5917 5918 5918 5917 5917 5916 5915 5915 5914 5914 5913 5913 5913 5913 5912 5912 5912 5911 5911 5911 5910 5910 5909 5908 5908 5907 5907 5907 5906 5905 5905 5904 5904 5904 5904 5904 5903 5903 5903 5902 5902 5902 5902 5902 5901 5901 5901 5901 5901 5900 5900 5900 5900 5900 5900 5900 5900 5900 5901 5901 5901 5900 5900 5900 5900
5915 5916 5916 5917 5917 5917 5917 5917 5917 5917 5918 5918 5918 5917 5916 5915 5914 5914 5913 5913 5912 5912 5912 5911 5911 5911 5911 5910 5910 5910 5909 5909 5908 5907 5907 5906 5906 5906 5905 5905 5904 5904 5903 5903 5903 5903 5902 5902 5902 5902 5902 5901 5901 5901 5900 5900 5900 5900 5900 5899 5899 5899 5899 5899 5899 5899 5899 5899 5899 5899 5899 5899 5899 5898
5914 5915 5916 5917 5917 5916 5916 5916 5916 5916 5916 5916 5916 5916 5915 5915 5914 5913 5913 5912 5912 5912 5911 5911 5910 5910 5910 5910 5909 5909 5908 5908 5907 5907 5906 5906 5905 5905 5905 5904 5904 5903 5903 5903 5902 5902 5901 5901 5901 5901 5901 5900 5900 5900 5899 5899 5899 5899 5898 5898 5898 5898 5897 5897 5897 5897 5897 5897 5896 5896 5896 5896 5896 5896
5914 5915 5916 5916 5915 5914 5915 5915 5915 5915 5914 5914 5914 5914 5913 5913 5913 5912 5912 5911 5911 5911 5910 5910 5910 5909 5909 5908 5908 5908 5907 5907 5906 5906 5905 5905 5904 5904 5903 5903 5903 5903 5902 5902 5901 5901 5900 5900 5900 5899 5899 5899 5899 5899 5898 5898 5898 5897 5897 5897 5896 5896 5896 5895 5895 5895 5895 5894 5894 5894 5894 5894 5894 5894
5914 5915 5915 5915 5914 5913 5914 5914 5913 5913 5912 5912 5912 5912 5911 5911 5911 5910 5910 5910 5909 5909 5909 5909 5908 5908 5907 5907 5906 5906 5906 5905 5905 5904 5904 5904 5903 5903 5902 5902 5901 5901 5900 5900 5900 5899 5899 5899 5898 5898 5898 5897 5897 5897 5897 5896 5896 5896 5896 5895 5895 5895 5894 5894 5893 5893 5893 5892 5892 5892 5892 5891 5891 5891
5913 5912 5912 5913 5913 5912 5912 5911 5911 5911 5911 5910 5910 5910 5910 5909 5909 5909 5908 5908 5908 5907 5907 5906 5906 5906 5906 5905 5905 5904 5903 5903 5903 5903 5902 5902 5902 5901 5901 5900 5900 5900 5899 5899 5898 5897 5897 5897 5896 5896 5896 5895 5895 5895 5895 5895 5894 5894 5893 5893 5893 5892 5892 5892 5891 5891 5890 5890 5890 5889 5889 5889 5888 5888
5910 5909 5910 5911 5910 5909 5909 5910 5910 5909 5908 5908 5909 5909 5908 5907 5907 5906 5906 5906 5905 5905 5905 5904 5904 5904 5904 5904 5903 5903 5902 5901 5901 5901 5900 5900 5900 5899 5899 5899 5898 5898 5898 5897 5896 5895 5895 5894 5894 5894 5893 5893 5893 5893 5893 5893 5892 5892 5891 5891 5890 5890 5889 5889 5889 5888 5888 5887 5887 5886 5886 5886 5885 5885
5908 5908 5909 5908 5907 5907 5908 5908 5907 5907 5906 5906 5907 5906 5906 5905 5904 5904 5904 5904 5903 5903 5903 5902 5902 5902 5902 5901 5901 5900 5900 5899 5899 5898 5898 5898 5898 5897 5897 5896 5896 5896 5896 5895 5894 5894 5893 5892 5891 5891 5891 5891 5891 5891 5890 5890 5890 5889 5889 5888 5888 5887 5886 5886 5886 5885 5885 5884 5884 5883 5883 5882 5882 5882
5907 5907 5907 5905 5905 5905 5906 5906 5905 5905 5904 5904 5904 5904 5903 5903 5902 5902 5902 5901 5901 5901 5900 5900 5900 5900 5899 5898 5898 5897 5897 5896 5896 5895 5895 5895 5895 5895 5894 5894 5894 5894 5893 5892 5892 5891 5891 5890 5889 5889 5888 5888 5888 5888 5888 5887 5887 5887 5886 5886 5885 5884 5884 5883 5883 5882 5881 5881 5880 5880 5880 5879 5879 5879
5905 5905 5904 5902 5902 5903 5903 5904 5903 5902 5902 5901 5901 5901 5901 5901 5900 5900 5899 5899 5898 5898 5898 5898 5897 5897 5896 5896 5895 5895 5894 5894 5893 5893 5893 5892 5892 5891 5891 5891 5892 5891 5890 5889 5889 5888 5888 5887 5887 5886 5886 5885 5885 5884 5884 5883 5883 5882 5882 5882 5882 5881 5881 5880 5880 5879 5879 5878 5877 5877 5876 5875 5875 5875
5902 5902 5901 5899 5899 5900 5901 5901 5901 5900 5899 5898 5898 5899 5899 5898 5898 5897 5897 5896 5895 5895 5895 5895 5894 5894 5894 5893 5893 5892 5891 5891 5891 5890 5890 5889 5889 5888 5888 5888 5888 5887 5887 5886 5885 5885 5885 5884 5884 5884 5883 5883 5882 5881 5881 5880 5879 5878 5878 5878 5878 5878 5877 5877 5876 5876 5875 5874 5873 5872 5872 5871 5871 5871
5898 5898 5898 5897 5897 5897 5898 5899 5898 5897 5896 5896 5896 5896 5896 5896 5895 5895 5894 5894 5893 5892 5892 5892 5891 5891 5890 5890 5890 5889 5889 5888 5888 5887 5887 5886 5885 5885 5885 5884 5884 5884 5883 5883 5882 5881 5881 5881 5881 5881 5880 5880 5879 5879 5878 5877 5875 5874 5875 5875 5874 5874 5873 5872 5872 5872 5871 5869 5868 5868 5868 5868 5868 5867
5894 5895 5895 5895 5895 5895 5896 5895 5895 5894 5893 5893 5893 5893 5893 5893 5892 5892 5892 5891 5890 5890 5889 5888 5888 5888 5887 5886 5886 5886 5885 5885 5884 5884 5883 5883 5882 5881 5881 5881 5881 5880 5880 5879 5879 5878 5877 5878 5878 5877 5877 5876 5876 5875 5875 5873 5872 5871 5871 5871 5870 5869 5869 5868 5867 5867 5866 5865 5864 5865 5864 5864 5864 5863
5890 5891 5891 5891 5891 5891 5891 5891 5890 5890 5890 5890 5890 5890 5890 5890 5889 5888 5888 5887 5886 5886 5885 5884 5884 5884 5883 5882 5882 5882 5881 5881 5880 5880 5879 5879 5878 5878 5878 5877 5877 5876 5876 5876 5875 5874 5874 5874 5874 5874 5873 5873 5872 5872 5871 5869 5868 5868 5867 5866 5865 5864 5864 5864 5863 5862 5861 5860 5860 5860 5859 5859 5859 5859
5886 5886 5887 5887 5887 5887 5886 5886 5886 5887 5887 5887 5886 5886 5886 5887 5886 5884 5883 5883 5882 5881 5880 5879 5879 5879 5878 5878 5878 5877 5877 5876 5876 5875 5875 5875 5874 5874 5874 5873 5872 5872 5872 5872 5872 5871 5870 5870 5870 5870 5869 5869 5868 5868 5867 5864 5863 5863 5862 5861 5860 5859 5859 5859 5858 5857 5856 5856 5855 5854 5854 5854 5853 5853
5882 5883 5883 5883 5883 5883 5883 5883 5883 5883 5883 5883 5882 5881 5882 5882 5881 5880 5879 5877 5877 5876 5875 5873 5873 5873 5873 5873 5873 5872 5872 5871 5871 5871 5870 5870 5869 5869 5869 5868 5867 5868 5868 5868 5867 5867 5865 5864 5864 5865 5864 5864 5863 5862 5861 5860 5857 5856 5856 5855 5854 5854 5854 5854 5853 5852 5851 5850 5850 5849 5849 5848 5848 5847
5879 5879 5880 5880 5879 5880 5880 5880 5880 5879 5878 5877 5876 5877 5877 5876 5875 5875 5874 5872 5871 5870 5869 5868 5868 5869 5869 5868 5868 5867 5867 5866 5866 5866 5865 5865 5864 5865 5864 5863 5862 5862 5863 5863 5862 5861 5860 5858 5858 5858 5858 5857 5857 5856 5854 5853 5852 5851 5851 5850 5849 5850 5850 5849 5848 5847 5846 5845 5844 5843 5842 5842 5841 5842
5875 5876 5877 5876 5876 5876 5876 5876 5876 5875 5872 5870 5870 5872 5872 5870 5868 5868 5867 5866 5865 5865 5864 5864 5864 5864 5865 5864 5864 5863 5862 5862 5861 5861 5861 5860 5860 5860 5860 5859 5857 5856 5857 5858 5856 5855 5855 5854 5852 5851 5851 5850 5849 5849 5848 5847 5847 5847 5846 5846 5844 5844 5844 5844 5843 5842 5841 5839 5838 5837 5837 5836 5835 5836
5872 5873 5873 5872 5872 5872 5871 5871 5871 5870 5868 5865 5865 5866 5865 5863 5862 5861 5861 5861 5861 5860 5860 5860 5859 5859 5859 5859 5859 5858 5858 5857 5856 5856 5855 5855 5854 5854 5853 5853 5852 5850 5850 5851 5850 5849 5849 5848 5846 5845 5845 5843 5842 5842 5842 5842 5841 5840 5841 5840 5839 5838 5837 5837 5837 5836 5835 5834 5832 5831 5831 5830 5829 5829
5868 5869 5869 5869 5868 5867 5867 5866 5866 5865 5863 5861 5860 5860 5859 5858 5857 5857 5856 5856 5856 5855 5855 5854 5853 5853 5853 5853 5853 5853 5852 5852 5851 5851 5850 5850 5849 5848 5847 5847 5846 5845 5844 5844 5844 5844 5843 5842 5841 5840 5839 5838 5836 5835 5836 5836 5835 5834 5834 5833 5833 5832 5831 5830 5830 5829 5829 5828 5827 5826 5825 5824 5823 5823
5864 5864 5864 5864 5863 5863 5863 5861 5860 5859 5858 5856 5854 5854 5853 5853 5853 5852 5851 5851 5850 5849 5849 5848 5847 5847 5847 5847 5847 5847 5847 5846 5846 5846 5845 5845 5844 5843 5842 5841 5841 5840 5839 5839 5838 5838 5837 5837 5836 5834 5833 5832 5831 5830 5830 5829 5829 5828 5827 5826 5826 5825 5824 5823 5822 5822 5821 5821 5820 5819 5818 5817 5816 5816
5858 5858 5858 5858 5859 5859 5858 5856 5854 5853 5852 5850 5849 5848 5848 5848 5848 5847 5847 5846 5845 5844 5843 5842 5842 5841 5841 5841 5840 5841 5841 5841 5840 5840 5840 5839 5839 5838 5837 5837 5836 5835 5835 5834 5833 5832 5832 5831 5831 5830 5829 5827 5826 5825 5824 5823 5823 5822 5821 5820 5820 5819 5818 5817 5815 5814 5814 5814 5813 5812 5811 5810 5809 5808
5853 5853 5853 5853 5854 5854 5853 5852 5850 5849 5847 5845 5845 5844 5844 5844 5843 5843 5842 5841 5840 5840 5839 5838 5837 5837 5836 5835 5835 5835 5835 5835 5835 5834 5834 5833 5833 5833 5832 5832 5831 5831 5830 5829 5828 5827 5826 5825 5825 5824 5823 5822 5821 5820 5819 5818 5817 5816 5815 5814 5813 5813 5812 5811 5810 5809 5808 5807 5806 5805 5804 5803 5802 5801
5848 5848 5847 5848 5848 5849 5848 5847 5846 5845 5844 5842 5842 5841 5841 5840 5840 5839 5838 5837 5836 5836 5835 5835 5834 5834 5833 5832 5831 5830 5830 5830 5830 5829 5829 5829 5828 5828 5828 5827 5826 5825 5824 5823 5823 5822 5821 5820 5819 5818 5817 5816 5815 5814 5813 5812 5811 5810 5809 5809 5808 5806 5806 5805 5804 5803 5801 5800 5799 5798 5797 5796 5795 5794
5842 5842 5842 5842 5843 5843 5843 5842 5841 5840 5840 5839 5838 5838 5837 5836 5836 5835 5834 5833 5833 5832 5831 5831 5830 5830 5829 5828 5827 5827 5826 5826 5825 5825 5825 5824 5824 5823 5823 5822 5821 5820 5819 5818 5817 5816 5815 5814 5813 5812 5811 5810 5809 5807 5806 5806 5805 5804 5803 5802 5801 5800 5799 5798 5797 5796 5794 5793 5792 5791 5790 5788 5787 5787
5837 5837 5837 5837 5838 5838 5838 5838 5837 5836 5835 5834 5833 5833 5832 5832 5831 5831 5830 5829 5829 5828 5827 5827 5826 5825 5825 5824 5824 5823 5822 5822 5821 5821 5820 5820 5819 5818 5818 5817 5817 5816 5814 5813 5812 5811 5810 5809 5808 5807 5805 5804 5803 5801 5800 5799 5798 5797 5796 5795 5794 5793 5792 5791 5789 5788 5787 5786 5785 5783 5782 5781 5780 5779
5832 5832 5832 5833 5833 5833 5834 5833 5833 5832 5831 5830 5829 5829 5828 5828 5827 5827 5826 5826 5825 5824 5824 5823 5822 5822 5821 5821 5820 5819 5819 5818 5818 5817 5816 5815 5815 5814 5813 5812 5812 5811 5810 5808 5807 5806 5805 5804 5802 5801 5800 5798 5797 5796 5794 5793 5792 5790 5789 5788 5787 5785 5784 5783 5782 5781 5779 5778 5777 5776 5775 5773 5772 5771
5827 5827 5828 5828 5829 5829 5830 5830 5829 5828 5827 5827 5826 5826 5825 5825 5824 5824 5823 5823 5822 5822 5821 5820 5820 5819 5818 5818 5817 5816 5815 5814 5814 5813 5812 5811 5810 5809 5808 5807 5806 5805 5804 5803 5802 5801 5799 5798 5796 5795 5794 5792 5791 5790 5788 5787 5785 5784 5782 5781 5780 5778 5777 5775 5774 5773 5772 5770 5769 5768 5767 5765 5764 5763
5823 5824 5824 5825 5825 5826 5826 5826 5825 5824 5824 5823 5823 5823 5822 5822 5821 5821 5820 5820 5819 5819 5818 5817 5817 5816 5815 5814 5813 5812 5811 5810 5809 5808 5807 5806 5805 5803 5802 5801 5800 5799 5798 5797 5796 5794 5793 5792 5790 5788 5787 5785 5784 5783 5781 5780 5778 5777 5775 5774 5772 5771 5769 5768 5766 5765 5764 5762 5761 5760 5758 5757 5755 5755
5821 5821 5822 5822 5823 5823 5822 5822 5821 5821 5821 5821 5820 5820 5819 5819 5818 5818 5817 5817 5816 5815 5815 5814 5813 5812 5812 5811 5810 5809 5807 5806 5805 5804 5802 5801 5800 5798 5797 5795 5794 5793 5791 5790 5789 5787 5785 5784 5783 5781 5779 5778 5777 5775 5774 5772 5770 5769 5768 5766 5765 5763 5761 5760 5759 5757 5755 5754 5753 5751 5749 5748 5747 5745
5819 5820 5820 5820 5820 5820 5819 5819 5819 5818 5818 5817 5817 5816 5816 5815 5815 5814 5813 5813 5812 5811 5811 5810 5809 5808 5807 5806 5805 5804 5803 5802 5800 5799 5798 5796 5794 5793 5791 5790 5788 5787 5785 5783 5782 5780 5778 5776 5775 5773 5771 5770 5769 5768 5767 5765 5761 5759 5759 5757 5756 5755 5753 5751 5750 5749 5747 5746 5744 5742 5739 5738 5738 5737
5818 5818 5818 5818 5818 5817 5817 5816 5816 5815 5815 5814 5814 5813 5812 5812 5811 5810 5810 5809 5808 5808 5807 5806 5805 5804 5803 5802 5800 5799 5798 5796 5795 5794 5792 5790 5789 5787 5785 5784 5782 5780 5778 5776 5774 5773 5771 5768 5766 5764 5762 5760 5758 5758 5759 5759 5754 5751 5749 5748 5746 5745 5743 5741 5740 5739 5738 5736 5734 5732 5730 5727 5728 5728
5816 5816 5816 5815 5815 5814 5814 5813 5813 5812 5812 5811 5810 5810 5809 5808 5808 5807 5806 5805 5804 5803 5802 5801 5800 5799 5798 5796 5795 5793 5792 5790 5788 5787 5785 5783 5782 5780 5778 5776 5774 5772 5770 5768 5766 5764 5762 5760 5758 5756 5753 5752 5749 5747 5747 5748 5747 5743 5739 5738 5737 5735 5732 5731 5730 5728 5727 5725 5723 5721 5719 5716 5716 5717
5814 5813 5813 5812 5812 5811 5811 5810 5810 5809 5809 5808 5807 5807 5806 5805 5804 5803 5802 5801 5800 5798 5797 5796 5794 5793 5791 5790 5788 5786 5785 5783 5781 5780 5778 5776 5774 5772 5770 5768 5766 5764 5762 5760 5758 5756 5753 5751 5749 5747 5744 5742 5740 5737 5735 5735 5736 5735 5730 5726 5726 5725 5722 5719 5718 5716 5715 5714 5711 5709 5707 5705 5703 5703
5811 5810 5810 5809 5809 5808 5808 5807 5807 5806 5805 5804 5804 5802 5801 5800 5799 5798 5797 5795 5794 5793 5791 5789 5788 5786 5785 5783 5781 5779 5778 5776 5774 5772 5770 5768 5766 5764 5761 5759 5757 5755 5753 5751 5748 5746 5744 5742 5739 5738 5735 5732 5730 5728 5725 5723 5723 5724 5721 5716 5713 5712 5711 5709 5707 5704 5703 5702 5699 5696 5694 5693 5691 5690
5808 5808 5807 5807 5806 5806 5805 5804 5803 5802 5801 5800 5799 5797 5796 5795 5794 5792 5791 5790 5788 5786 5785 5783 5781 5779 5777 5776 5774 5772 5770 5768 5765 5763 5761 5759 5757 5754 5751 5749 5747 5745 5742 5740 5738 5736 5734 5732 5729 5727 5725 5722 5719 5717 5715 5713 5711 5711 5712 5709 5704 5700 5698 5697 5696 5693 5691 5690 5687 5685 5682 5680 5678 5677
5805 5805 5804 5803 5803 5802 5801 5800 5798 5797 5796 5794 5793 5792 5791 5789 5788 5787 5785 5784 5782 5780 5778 5776 5774 5772 5770 5768 5765 5763 5761 5758 5756 5754 5751 5749 5747 5744 5741 5738 5736 5734 5731 5729 5727 5725 5723 5720 5718 5716 5714 5712 5709 5705 5704 5702 5700 5698 5699 5698 5695 5691 5688 5685 5684 5682 5680 5678 5676 5674 5671 5669 5667 5665
5802 5801 5800 5799 5798 5797 5796 5795 5793 5792 5790 5789 5788 5786 5785 5784 5782 5781 5779 5777 5775 5773 5770 5768 5766 5764 5761 5759 5756 5754 5751 5749 5746 5744 5741 5739 5737 5734 5732 5729 5726 5724 5722 5719 5717 5714 5712 5710 5708 5705 5703 5701 5698 5695 5693 5691 5689 5687 5686 5685 5684 5682 5679 5676 5673 5671 5669 5668 5666 5663 5660 5658 5656 5654
5798 5797 5796 5795 5794 5793 5791 5790 5788 5787 5785 5784 5782 5781 5779 5778 5776 5774 5772 5770 5768 5765 5763 5760 5758 5756 5753 5751 5748 5746 5743 5741 5738 5736 5733 5731 5728 5726 5723 5721 5718 5715 5713 5710 5708 5705 5703 5701 5698 5696 5693 5691 5688 5686 5683 5681 5679 5677 5675 5673 5671 5670 5669 5667 5664 5662 5660 5658 5655 5653 5650 5648 5646 5644
5794 5793 5792 5790 5789 5788 5786 5785 5783 5781 5780 5778 5777 5775 5773 5771 5769 5767 5765 5763 5761 5758 5756 5753 5751 5749 5746 5744 5741 5738 5736 5733 5730 5728 5725 5722 5720 5717 5714 5712 5709 5707 5704 5702 5699 5696 5694 5692 5690 5687 5685 5683 5680 5677 5675 5672 5670 5668 5666 5664 5661 5659 5658 5656 5654 5653 5651 5650 5648 5644 5641 5639 5638 5635
5789 5788 5787 5786 5785 5783 5782 5780 5778 5776 5775 5773 5771 5769 5767 5765 5763 5761 5758 5756 5753 5751 5748 5746 5743 5740 5737 5735 5732 5729 5727 5724 5721 5718 5715 5713 5710 5707 5705 5702 5700 5698 5696 5693 5691 5689 5686 5684 5682 5679 5677 5674 5672 5669 5667 5664 5661 5659 5658 5655 5652 5650 5649 5647 5645 5643 5641 5640 5640 5638 5634 5631 5630 5628